Погода в Йенбае

Вьетнам     21°42′42″N   104°53′07″E
темп.,
°C
ветер,
м/с
пор.,
м/с
влажн.,
%
обл.,
%
осадки,
мм/ч
давл.,
гПа
погр.,
м
13 апреля, вт
вт1301:00+24ююв249184 0.0 1012205
04:00+23ююв1292100 0.1 1011137
07:00+23ююв1292100 0.3 1013150
10:00+24юв359194 0.2 1014321
13:00+26в358155 0.3 1011481
16:00+27вюв277526 0.2 1008454
19:00+26ююв3680100 0.4 1010183
22:00+24юв3691100 2.6 1011183
14 апреля, ср
ср1401:00+24ююв1192100 2.6 101026
04:00+23ююв2394100 0.1 1009156
07:00+23ююв1393100 0.2 1011152
10:00+25вюв2285100 0.1 1013346
13:00+27в137276 0.2 1009701
16:00+28вюв2469100 0.0 1006650
19:00+27ююв257798 0.0 1007158
22:00+24юв4108687 0.1 1010444
15 апреля, чт
чт1501:00+23ююв1293100 0.1 100962
04:00+23ююв239395 0.1 100897
07:00+23ююв1293100 0.6 101099
10:00+24вюв2390100 0.4 1012318
13:00+27всв2475100 0.9 1008634
16:00+28всв247244 0.2 1006570
19:00+26юв268364 1.0 1008201
22:00+24юв378957 0.0 1011257
16 апреля, пт
пт1601:00+23ю249288 0.1 1010126
04:00+23ю1294100 0.9 101069
07:00+23ююв1294100 2.7 1012108
10:00+24ююв2491100 1.7 1014295
13:00+26в248079 2.5 1012546
16:00+26в1378100 0.6 1009403
19:00+25юв2287100 2.4 101260
22:00+24в2290100 1.1 101540
17 апреля, сб
сб1701:00+22в31089100 4.5 1015519
04:00+21в3882100 0.9 1015471
07:00+21в2480100 1.0 1017364
10:00+20вюв2484100 0.6 1019315
13:00+20ссз1185100 0.9 1017231
16:00+20сз1190100 0.4 1016186
19:00+20сз1192100 0.8 1017130
22:00+20сз1194100 1.0 1018107